• In Hungary
  • List of Countries
  • For 7 days
  • Water Temperature
  • Satellite Maps
  • Weather Map
  • News
  • Weather Widgets
  • user-avatar
    Login

    Hourly Weather Suhar

    Today, 25 November, Saturday

    Time Temperature Precipitation Wind Pressure Humidity
    00:00 +27°C° 0 mm 1 mps 762 mmHg 58%
    01:00 +26°C° 0 mm 2 mps 762 mmHg 59%
    02:00 +26°C° 0 mm 2 mps 762 mmHg 60%
    03:00 +26°C° 0 mm 2 mps 762 mmHg 61%
    04:00 +25°C° 0 mm 2 mps 762 mmHg 64%
    05:00 +25°C° 0 mm 2 mps 762 mmHg 64%
    06:00 +25°C° 0 mm 2 mps 762 mmHg 64%
    07:00 +25°C° 0 mm 2 mps 763 mmHg 64%
    08:00 +27°C° 0 mm 2 mps 763 mmHg 56%
    09:00 +28°C° 0 mm 2 mps 763 mmHg 48%
    10:00 +30°C° 0 mm 2 mps 764 mmHg 41%
    11:00 +31°C° 0 mm 3 mps 763 mmHg 38%
    12:00 +33°C° 0 mm 4 mps 763 mmHg 34%
    13:00 +34°C° 0 mm 4 mps 762 mmHg 30%
    14:00 +33°C° 0 mm 5 mps 762 mmHg 30%
    15:00 +33°C° 0 mm 6 mps 762 mmHg 29%
    16:00 +33°C° 0 mm 6 mps 762 mmHg 29%
    17:00 +32°C° 0 mm 6 mps 762 mmHg 32%
    18:00 +30°C° 0 mm 6 mps 762 mmHg 35%
    19:00 +29°C° 0 mm 6 mps 763 mmHg 38%
    20:00 +28°C° 0 mm 5 mps 763 mmHg 40%
    21:00 +27°C° 0 mm 5 mps 763 mmHg 42%
    22:00 +27°C° 0 mm 4 mps 763 mmHg 43%
    23:00 +26°C° 0 mm 4 mps 763 mmHg 45%

    Tomorrow, 26 November, Sunday

    Time Temperature Precipitation Wind Pressure Humidity
    00:00 +26°C° 0 mm 4 mps 763 mmHg 47%
    01:00 +25°C° 0 mm 4 mps 763 mmHg 48%
    02:00 +25°C° 0 mm 4 mps 763 mmHg 50%
    03:00 +25°C° 0 mm 4 mps 763 mmHg 53%
    04:00 +23°C° 0 mm 4 mps 763 mmHg 55%
    05:00 +23°C° 0 mm 4 mps 763 mmHg 57%
    06:00 +23°C° 0 mm 4 mps 763 mmHg 59%
    07:00 +22°C° 0 mm 4 mps 764 mmHg 61%
    08:00 +25°C° 0 mm 3 mps 764 mmHg 55%
    09:00 +26°C° 0 mm 3 mps 764 mmHg 49%
    10:00 +28°C° 0 mm 3 mps 764 mmHg 43%
    11:00 +28°C° 0 mm 3 mps 764 mmHg 39%
    12:00 +29°C° 0 mm 3 mps 763 mmHg 36%
    13:00 +30°C° 0 mm 4 mps 762 mmHg 32%
    14:00 +30°C° 0 mm 4 mps 762 mmHg 34%
    15:00 +30°C° 0 mm 4 mps 762 mmHg 35%
    16:00 +29°C° 0 mm 4 mps 762 mmHg 36%
    17:00 +28°C° 0 mm 3 mps 762 mmHg 41%
    18:00 +27°C° 0 mm 2 mps 762 mmHg 45%
    19:00 +26°C° 0 mm 1 mps 762 mmHg 49%
    20:00 +26°C° 0 mm 1 mps 762 mmHg 51%
    21:00 +25°C° 0 mm 1 mps 762 mmHg 53%
    22:00 +25°C° 0 mm 1 mps 762 mmHg 55%
    23:00 +24°C° 0 mm 1 mps 762 mmHg 56%

    Day after tomorrow, 27 November, Monday

    Time Temperature Precipitation Wind Pressure Humidity
    00:00 +24°C° 0 mm 1 mps 762 mmHg 56%
    01:00 +23°C° 0 mm 1 mps 762 mmHg 57%
    02:00 +23°C° 0 mm 1 mps 762 mmHg 57%
    03:00 +23°C° 0 mm 1 mps 761 mmHg 58%
    04:00 +22°C° 0 mm 1 mps 761 mmHg 59%
    05:00 +22°C° 0 mm 1 mps 762 mmHg 59%
    06:00 +22°C° 0 mm 1 mps 762 mmHg 59%
    07:00 +22°C° 0 mm 1 mps 762 mmHg 59%
    08:00 +24°C° 0 mm 1 mps 762 mmHg 51%
    09:00 +26°C° 0 mm 1 mps 763 mmHg 43%
    10:00 +28°C° 0 mm 1 mps 763 mmHg 35%
    11:00 +29°C° 0 mm 1 mps 762 mmHg 33%
    12:00 +30°C° 0 mm 2 mps 761 mmHg 31%
    13:00 +31°C° 0 mm 2 mps 761 mmHg 30%
    14:00 +30°C° 0 mm 2 mps 760 mmHg 32%
    15:00 +30°C° 0 mm 3 mps 760 mmHg 34%
    16:00 +30°C° 0 mm 3 mps 759 mmHg 37%
    17:00 +29°C° 0 mm 3 mps 760 mmHg 41%
    18:00 +28°C° 0 mm 2 mps 760 mmHg 46%
    19:00 +27°C° 0 mm 1 mps 760 mmHg 51%
    20:00 +26°C° 0 mm 1 mps 761 mmHg 54%
    21:00 +26°C° 0 mm 1 mps 761 mmHg 56%
    22:00 +23°C° 0 mm 0 mps 761 mmHg 59%
    23:00 +25°C° 0 mm 1 mps 761 mmHg 59%

    28 November, Tuesday

    Time Temperature Precipitation Wind Pressure Humidity
    00:00 +24°C° 0 mm 1 mps 760 mmHg 60%
    01:00 +24°C° 0 mm 1 mps 760 mmHg 60%
    02:00 +24°C° 0 mm 1 mps 760 mmHg 59%
    03:00 +23°C° 0 mm 1 mps 760 mmHg 59%
    04:00 +23°C° 0 mm 1 mps 760 mmHg 59%
    05:00 +23°C° 0 mm 1 mps 760 mmHg 56%
    06:00 +23°C° 0 mm 1 mps 760 mmHg 54%
    07:00 +23°C° 0 mm 1 mps 760 mmHg 52%
    08:00 +25°C° 0 mm 1 mps 761 mmHg 45%
    09:00 +28°C° 0 mm 1 mps 761 mmHg 38%
    10:00 +30°C° 0 mm 1 mps 761 mmHg 30%
    11:00 +31°C° 0 mm 1 mps 760 mmHg 30%
    12:00 +32°C° 0 mm 2 mps 760 mmHg 29%
    13:00 +34°C° 0 mm 2 mps 759 mmHg 28%
    14:00 +34°C° 0 mm 2 mps 759 mmHg 29%
    15:00 +34°C° 0 mm 3 mps 758 mmHg 31%
    16:00 +34°C° 0 mm 3 mps 758 mmHg 33%
    17:00 +31°C° 0 mm 2 mps 759 mmHg 37%
    18:00 +30°C° 0 mm 2 mps 759 mmHg 41%
    19:00 +29°C° 0 mm 1 mps 759 mmHg 44%
    20:00 +29°C° 0 mm 2 mps 760 mmHg 47%
    21:00 +28°C° 0 mm 2 mps 760 mmHg 49%
    22:00 +28°C° 0 mm 2 mps 760 mmHg 52%
    23:00 +27°C° 0 mm 3 mps 760 mmHg 54%

    29 November, Wednesday

    Time Temperature Precipitation Wind Pressure Humidity
    00:00 +27°C° 0 mm 3 mps 760 mmHg 56%
    01:00 +26°C° 0 mm 4 mps 760 mmHg 58%
    02:00 +26°C° 0 mm 4 mps 760 mmHg 59%
    03:00 +25°C° 0 mm 4 mps 760 mmHg 60%
    04:00 +25°C° 0 mm 4 mps 760 mmHg 61%
    05:00 +25°C° 0 mm 4 mps 760 mmHg 61%
    06:00 +23°C° 0 mm 4 mps 760 mmHg 61%
    07:00 +23°C° 0 mm 4 mps 761 mmHg 60%
    08:00 +26°C° 0 mm 4 mps 761 mmHg 51%
    09:00 +28°C° 0 mm 4 mps 761 mmHg 42%
    10:00 +30°C° 0 mm 4 mps 762 mmHg 33%
    11:00 +32°C° 0 mm 4 mps 761 mmHg 30%
    12:00 +33°C° 0 mm 4 mps 760 mmHg 27%
    13:00 +34°C° 0 mm 4 mps 760 mmHg 24%
    14:00 +34°C° 0 mm 4 mps 760 mmHg 26%
    15:00 +33°C° 0 mm 4 mps 759 mmHg 27%
    16:00 +33°C° 0 mm 4 mps 759 mmHg 28%
    17:00 +31°C° 0 mm 3 mps 760 mmHg 35%
    18:00 +29°C° 0 mm 3 mps 760 mmHg 41%
    19:00 +28°C° 0 mm 2 mps 760 mmHg 47%
    20:00 +27°C° 0 mm 2 mps 760 mmHg 50%
    21:00 +27°C° 0 mm 1 mps 761 mmHg 52%
    22:00 +26°C° 0 mm 1 mps 761 mmHg 55%
    23:00 +26°C° 0 mm 1 mps 760 mmHg 55%

    30 November, Thursday

    Time Temperature Precipitation Wind Pressure Humidity
    00:00 +25°C° 0 mm 1 mps 760 mmHg 56%
    01:00 +25°C° 0 mm 2 mps 760 mmHg 57%
    02:00 +24°C° 0 mm 2 mps 760 mmHg 58%
    03:00 +24°C° 0 mm 2 mps 760 mmHg 59%
    04:00 +23°C° 0 mm 2 mps 760 mmHg 60%
    05:00 +23°C° 0 mm 1 mps 760 mmHg 61%
    06:00 +23°C° 0 mm 1 mps 761 mmHg 61%
    07:00 +23°C° 0 mm 1 mps 761 mmHg 61%
    08:00 +25°C° 0 mm 1 mps 761 mmHg 54%
    09:00 +27°C° 0 mm 1 mps 762 mmHg 48%
    10:00 +29°C° 0 mm 1 mps 762 mmHg 41%
    11:00 +29°C° 0 mm 2 mps 761 mmHg 39%
    12:00 +30°C° 0 mm 2 mps 760 mmHg 37%
    13:00 +31°C° 0 mm 3 mps 760 mmHg 36%
    14:00 +31°C° 0 mm 3 mps 759 mmHg 38%
    15:00 +30°C° 0 mm 3 mps 759 mmHg 40%
    16:00 +30°C° 0 mm 4 mps 759 mmHg 42%
    17:00 +29°C° 0 mm 3 mps 759 mmHg 46%
    18:00 +28°C° 0 mm 3 mps 760 mmHg 50%
    19:00 +27°C° 0 mm 2 mps 760 mmHg 55%
    20:00 +27°C° 0 mm 2 mps 760 mmHg 57%
    21:00 +26°C° 0 mm 1 mps 760 mmHg 60%
    22:00 +26°C° 0 mm 1 mps 760 mmHg 62%
    23:00 +25°C° 0 mm 1 mps 760 mmHg 64%
    Show more